Regional Weather Roundup
Issued by NWS Bismarck, ND

Home | Current Version | Previous Version | Text Only | Print | Product List | Glossary On
Versions: 1 2 3 4 5 6 7 8 9 10 11 12 13 14 15 16 17 18 19 20 21 22 23 24 25 26 27 28 29 30 31 32 33 34 35 36 37 38 39 40 41 42 43 44 45 46 47 48 49 50
000
ASUS43 KBIS 251510
RWRBIS

NWR BROADCAST TEXT
NATIONAL WEATHER SERVICE BISMARCK ND
1000 AM CDT TUE APR 25 2017

NOTE: "FAIR" INDICATES FEW OR NO CLOUDS BELOW 12,000 FEET WITH NO
SIGNIFICANT WEATHER AND/OR OBSTRUCTIONS TO VISIBILITY.


CITY           SKY/WX    TMP DP  RH WIND       PRES   REMARKS
WILLISTON      CLOUDY    32  22  66 NE13      29.93R
MINOT          CLOUDY    31  23  72 N20G28    29.88F WCI  19
MINOT AFB      CLOUDY    30  23  75 NE18G26   29.88F WCI  17
BISMARCK       CLOUDY    31  26  82 NE15      29.84R
DICKINSON      CLOUDY    26  24  92 NE16      29.83R WCI  14
GARRISON         N/A     28  22  78 NE15G22   29.86R WCI  16
HETTINGER ARPT CLOUDY    26  25  96 NE14      29.83R FOG     WCI  14
JAMESTOWN      CLOUDY    30  28  92 N25G31    29.76R WCI  16
HAZEN          CLOUDY    28  25  86 NE15G23   29.89R WCI  17
LINTON           N/A     30  30 100 NE15G23   29.81R WCI  19
MANDAN         CLOUDY    28  25  86 NE18G26   29.83R WCI  16
STANLEY        CLOUDY    30  28  93 NE15G26   29.90S WCI  19
TIOGA          CLOUDY    28  27  93 NE23G29   29.90S WCI  14
WATFORD CITY   CLOUDY    30  21  69 NE17G24   29.90R WCI  18
$$

CITY           SKY/WX    TMP DP  RH WIND       PRES   REMARKS
GRAND FORKS    CLOUDY    33  28  81 N29       29.80S WCI  19
GRAND FORKS AF CLOUDY    31  27  84 N25G31    29.80F WCI  17
DEVILS LAKE    CLOUDY    29  24  82 N26G32    29.84S WCI  14
FARGO          CLOUDY    34  31  88 N26G39    29.73R
CAVALIER         N/A     30  25  80 N16G26    29.87S WCI  19
GRAFTON        CLOUDY    30  28  93 N20       29.85S WCI  18
GWINNER          N/A     32  30  93 MISG      29.71S
LANGDON        CLOUDY    28  25  86 N28G37    29.85F WCI  13
ROLLA          CLOUDY    27  23  86 NE26G32   29.89R WCI  11
$$

CITY           SKY/WX    TMP DP  RH WIND       PRES   REMARKS
ABERDEEN       CLOUDY    33  28  81 N21G26    29.73R
MOBRIDGE       CLOUDY    33  28  81 N20       29.75R
BUFFALO          N/A     29  27  92 NE17      29.72R WCI  17
RAPID CITY     LGT SNOW  30  28  92 N15       29.72R VSB 1   WCI  19
GLASGOW        CLOUDY    31  25  78 E10       29.93S
SIDNEY         CLOUDY    30  24  78 NE15      29.92R WCI  19
WOLF POINT     CLOUDY    33  24  69 E16       29.95R
GLENDIVE       CLOUDY    28  24  85 NE15      29.90R WCI  16
MILES CITY     CLOUDY    32  27  81 NE14      29.85R
BAKER          CLOUDY    28  24  85 NE13      29.84R WCI  17
$$

CITY           SKY/WX    TMP DP  RH WIND       PRES   REMARKS
BILLINGS       CLOUDY    32  30  92 E13       29.82R
GREAT FALLS    LGT RAIN  39  37  92 NE8       29.80R VSB 1
REGINA         CLOUDY    27  18  69 E12       30.02R WCI  16
ESTEVAN        PTSUNNY   30  21  69 NE15      29.96S WCI  19
$$





USA.gov is the U.S. government's official web portal to all federal, state and local government web resources and services.